Hourly Data Report for July 19, 2021

SALLUIT
QUEBEC
Current Station Operator: ECCC - MSC

62°10'46.005" N
75°40'13.006" W
228.00 m
7117800
71641
MFX

Download Data

Hourly Data (July 2021)
Hourly Data Report for July 19, 2021
TIME
LST
Temp Definition
°C
Dew Point Definition
°C
Rel Hum Definition
%
Precip. Amount Definition
mm

Wind Dir Definition
10's deg

Wind Spd Definition
km/h
Visibility Definition
km
Stn Press Definition
kPa
Hmdx Definition


Wind Chill Definition


Weather Definition


00:00 2.9 1.7 92 0.0 26 27   97.25     LegendNANA
01:00 2.3 2.1 98 0.0 26 26   97.23     LegendNANA
02:00 1.9 1.4 97 0.0 25 21   97.24     LegendNANA
03:00 1.6 1.0 96 0.0 26 21   97.23     LegendNANA
04:00 1.4 1.3 99 0.0 27 19   97.23     LegendNANA
05:00 1.3 1.1 99 0.0 29 12   97.27     LegendNANA
06:00 1.1 1.1 100 0.5 32 15   97.31     LegendNANA
07:00 1.0 1.0 100 0.0 32 19   97.36     LegendNANA
08:00 1.2 1.2 100 0.2 35 21   97.39     LegendNANA
09:00 1.3 1.3 100 0.2 36 17   97.46     LegendNANA
10:00 1.7 1.7 100 0.0 1 24   97.48     LegendNANA
11:00 1.9 1.8 100 0.0 1 20   97.51     LegendNANA
12:00 2.2 2.2 100 0.0 1 15   97.55     LegendNANA
13:00 2.3 2.3 100 0.0 1 12   97.57     LegendNANA
14:00 2.3 2.3 100 1.0 33 20   97.65     LegendNANA
15:00 2.6 2.6 100 0.3 34 14   97.72     LegendNANA
16:00 2.6 2.6 100 0.4 32 18   97.75     LegendNANA
17:00 3.9 3.7 99 0.2 33 23   97.77     LegendNANA
18:00 4.2 3.1 93 0.0 34 26   97.79     LegendNANA
19:00 4.2 3.0 92 0.0 34 22   97.84     LegendNANA
20:00 3.8 3.4 97 0.0 33 20   97.88     LegendNANA
21:00 3.5 2.6 94 0.0 34 19   97.92     LegendNANA
22:00 3.4 2.4 93 0.0 2 10   97.95     LegendNANA
23:00 3.4 2.1 91 0.0 3 6   97.97     LegendNANA

Notes on Data Quality.

Legend

  • E = Estimated
  • M = Missing
  • NA = Not Available*
  • [empty] = Indicates an unobserved value
Date modified: